map of AJA home
AJA - Airport
Location
City:  Ajaccio, Corse (Corsica), France
Name:Ajaccio Napoleon Bonaparte Airport
Old (Alt.):Campo dell'Oro Airport
ICAO:LFKJ
IATA:AJA

Details
Type:Airport (Aerodrome, Airfield)
Use:Public/Civil
Latitude:4155'26"N (41.923889)
Longitude:848'09"E (8.802500)
Elevation:16 ft (5 m)
Variation:2.42E (WMM2015 magnetic declination)
0.11 annual change
Runways:2
Longest:7897 × 148 ft (2407 × 45 m), paved

Time
Time Zone:UTC+1 (DST+2)
Local Time:

Weather
METAR:LFKJ 171400Z AUTO 26004KT 230V320 9999 FEW076/// OVC130/// ///TCU 23/17 Q1012 TEMPO BKN030 FEW035CB OVC050
TAF:LFKJ 171400Z 1715/1815 05005KT 9999 FEW040 BKN100
BECMG 1718/1720 FEW030 SCT090
BECMG 1809/1811 23008KT

Related Locations
Nearby:
Farthest:CHT: 12142 mi / 19540 km
Waitangi [Tuuta], CIT, NZ

Find:

   beyond  
but within

Other Information
Maps:
NOTAMs:
Links:
Sources:

  
  • flag of France
  • flag of Corse (Corsica)
  

Sectional Chart

Flight Planning
at skyvector.com

Satellite Image

Google Maps Satellite view

 

Copyright © 2004-2018 Karl L. Swartz. All rights reserved.
The Great Circle Mapper name and logo are trademarks of the Great Circle Mapper.
All other trademarks mentioned herein belong to their respective owners.
Please see credits for attibutions and further copyright information.

  Follow gcmap on Facebook Follow gcmap on Twitter Follow gcmap on Google+ GCmap on LinkedIn

hCard Microformat

Geo Microformat